Regional Weather Roundup
Issued by NWS

Home | Current Version | Previous Version | Graphics & Text | Print | Product List | Glossary Off
Versions: 1 2 3 4 5 6 7 8 9 10 11 12 13 14 15 16 17 18 19 20 21 22 23 24 25 26 27 28 29 30 31 32 33 34 35 36 37 38 39 40 41 42 43 44 45 46 47 48 49 50

000
ASUS45 KBOU 031707
RWRCO

WEATHER ROUNDUP FOR COLORADO
NATIONAL WEATHER SERVICE DENVER/BOULDER CO
1100 AM MDT MON AUG 03 2015

NOTE: "FAIR" INDICATES FEW OR NO CLOUDS BELOW 12000 FEET WITH NO
SIGNIFICANT WEATHER AND/OR OBSTRUCTIONS TO VISIBILITY.

COZ001>005-013-030-031-031800-
...NORTHWEST COLORADO...

CITY           SKY/WX    TMP DP  RH WIND       PRES   REMARKS
CRAIG          LGT RAIN  66  55  67 E6        30.19F
HAYDEN         CLOUDY    64  50  59 S3        30.21S
MEEKER         CLOUDY    70  52  52 VRB5      30.19F
MOUNT WERNER   NOT AVBL
STEAMBOAT SPGS   N/A     65  49  55 CALM      30.23S
WALDEN         MOSUNNY   66  43  42 NE3       30.30S
$$

COZ006>008-011-031800-
...WEST CENTRAL VALLEYS...

CITY           SKY/WX    TMP DP  RH WIND       PRES   REMARKS
GRAND JUNCTION MOSUNNY   77  54  44 S10       30.10S
MONTROSE       SUNNY     74  54  49 E5        30.20S
EAGLE          CLOUDY    64  54  68 CALM      30.26S
RIFLE          PTSUNNY   69  59  70 VRB3      30.17F
DELTA          MOSUNNY   78  54  43 NE5       30.16S
NUCLA          SUNNY     70  57  64 CALM      30.25S
$$

COZ017>023-064>068-031800-
...SOUTHWEST COLORADO...

CITY           SKY/WX    TMP DP  RH WIND       PRES   REMARKS
DURANGO        SUNNY     70  52  52 CALM      30.27S
CORTEZ         SUNNY     72  56  57 CALM      30.22S
PAGOSA SPRINGS SUNNY     67  49  53 CALM      30.33S
TELLURIDE      MOSUNNY   64  45  50 W6        30.43R
WOLF CREEK PAS NOT AVBL
$$

COZ009-010-012-014-032>034-037-058>063-031800-
...CENTRAL COLORADO...

CITY           SKY/WX    TMP DP  RH WIND       PRES   REMARKS
ASPEN          LGT RAIN  59  52  77 NW5       30.32R
BUENA VISTA    CLOUDY    63  50  63 CALM      30.33S
COPPER MTN     CLOUDY    52  36  54 SE10      30.59R
BERTHOUD PASS  CLOUDY    41  32  70 SE31G37   30.63R
COTTONWOOD PAS CLOUDY    59  43  55 CALM      30.45S
GUNNISON       PTSUNNY   61  52  72 NW5       30.36R
KREMMLING      CLOUDY    70  43  37 W3        30.28S
LEADVILLE      CLOUDY    54  42  64 CALM      30.44R
MONARCH PASS   FOG       46  43  87 SW7       30.69R VSB 1
SALIDA         CLOUDY    69  51  54 NW6       30.37S
SUNLIGHT       CLOUDY    54  48  82 CALM      30.52R
WILKERSON PASS CLOUDY    52  37  58 CALM      30.57R
$$

COZ069>075-031800-
...SAN LUIS VALLEY/SANGRE DE CRISTO MOUNTAINS...

CITY           SKY/WX    TMP DP  RH WIND       PRES   REMARKS
ALAMOSA        MOSUNNY   66  51  58 SW5       30.30S
LA VETA PASS   CLOUDY    50  46  87 MISG      30.45S
SAGUACHE       MOSUNNY   64  52  63 SE6       30.33S
$$

COZ035-036-038>040-031800-
...NORTHERN COLORADO FRONT RANGE...

CITY           SKY/WX    TMP DP  RH WIND       PRES   REMARKS
DENVER INTL AP CLOUDY    81  50  33 SW8       30.11S
DMNS CITY PARK   N/A     77  55  46 E1G10     30.11S
AURORA         PTSUNNY   76  51  41 VRB1      30.14S
FRONT RANGE AP PTSUNNY   81  54  39 S6        30.13R
ERIE MUNI ARPT CLOUDY    80  46  30 CALM      30.09S
BOULDER MUN AP CLOUDY    75  52  43 CALM      30.11R
CENTENNIAL     CLOUDY    74  49  41 NW7       30.14S
BROOMFIELD     CLOUDY    75  52  43 MISG      30.14S
FORT COLLINS   CLOUDY    77  52  41 CALM      30.09S
LONGMONT       CLOUDY    80  53  38 CALM      30.11R
$$

COZ041-046-047-076>085-087-088-031800-
...PIKES PEAK/PALMER DIVIDE AND SOUTHERN FOOTHILLS...

CITY           SKY/WX    TMP DP  RH WIND       PRES   REMARKS
COLO. SPRINGS  CLOUDY    75  55  49 CALM      30.19S
A. F. ACADEMY  DRIZZLE   72  54  53 S5        30.20S
ELLICOTT       CLOUDY   N/A N/A N/A S5        30.17S
FALCON         CLOUDY    70  58  66 S3        30.24S
FORT CARSON    PTSUNNY   76  54  46 VRB2      30.15S
LIMON          CLOUDY    77  55  46 S3        30.13R
MONUMENT HILL  NOT AVBL
TRINIDAD       PTSUNNY   76  51  41 CALM      30.14S
$$

COZ042>045-048>051-090-091-031800-
...NORTHEAST COLORADO...

CITY           SKY/WX    TMP DP  RH WIND       PRES   REMARKS
GREELEY ARPT   CLOUDY    79  55  44 SE6       30.08S
AKRON          CLOUDY    79  63  57 SE9       30.09R
BURLINGTON     PTSUNNY   84  59  42 E8        30.06S
WRAY           PTSUNNY   83  60  45 SE7       30.04R
STERLING       CLOUDY    82  61  47 S6        30.03S
HOLYOKE        PTSUNNY   84  61  45 SE8       30.04S
FORT MORGAN    CLOUDY    82  55  39 S3        30.07S
$$

COZ086-089-092>099-031800-
...SOUTHEAST COLORADO...

CITY           SKY/WX    TMP DP  RH WIND       PRES   REMARKS
PUEBLO         CLOUDY    80  53  39 W7        30.07S
LA JUNTA       MOSUNNY   85  55  35 VRB3      30.04R
LAMAR          PTSUNNY   86  66  51 E12       29.99S
SPRINGFIELD      N/A     84  58  40 SE10      30.04R
$$



USA.gov is the U.S. government's official web portal to all federal, state and local government web resources and services.